Wind_Speed
13 18 9 4 4 5 1 3 2 2 2 4 3 5 7 4 3 3 7 9 23 21 19 14 14 15 16 15 18 18 19 17 16 18 18 18 17 17 18 19 19 17 18 18 19 19 19 19 20
13 12 5 2 4 2 4 3 5 3 6 8 7 3 5 3 3 7 12 18 24 21 17 16 15 16 16 14 18 20 19 18 16 17 18 17 19 18 18 19 19 19 18 18 18 18 18 18 18
10 7 3 4 3 3 5 4 5 3 7 1 4 5 3 3 4 13 9 25 22 19 18 18 18 19 16 14 17 19 17 18 17 18 18 18 17 18 19 19 17 17 17 17 17 17 18 17 16
6 5 4 3 3 4 5 6 5 6 2 6 5 6 2 2 11 12 24 24 22 19 17 17 19 19 17 14 16 18 17 16 16 17 17 16 17 19 19 17 17 16 15 14 15 16 17 17 15
5 3 3 2 3 3 3 4 6 5 3 3 2 3 3 3 11 26 24 23 22 20 18 17 18 18 17 15 15 17 16 14 16 16 16 15 17 18 17 15 15 14 14 13 13 15 15 15 14
3 3 4 2 3 1 2 3 5 2 3 3 5 4 3 14 28 26 24 23 21 21 19 18 18 18 16 16 15 16 16 14 14 15 16 14 15 15 16 14 13 13 13 13 13 13 12 12 12
5 3 5 4 2 1 5 6 5 5 7 3 8 4 2 9 24 27 22 21 21 21 20 19 20 19 16 14 13 14 15 14 14 14 14 13 14 14 12 11 11 11 11 11 12 11 9 9 10
4 4 5 4 5 4 4 4 5 5 2 3 5 6 6 12 26 27 23 22 21 21 20 19 20 22 16 13 12 12 13 13 13 13 13 13 13 12 11 10 9 8 8 8 9 9 8 8 7
3 3 3 5 7 4 5 4 3 1 7 1 2 6 9 30 27 30 26 22 20 20 20 20 21 21 19 15 13 12 12 12 12 12 12 12 12 10 8 7 6 4 4 5 5 6 6 6 4
4 2 8 5 5 6 7 6 9 5 4 1 2 3 27 30 27 23 24 21 24 23 22 22 20 20 20 17 16 14 13 12 12 11 12 11 10 8 6 5 3 3 3 2 2 3 4 4 4
2 4 3 3 4 6 8 7 4 8 3 6 8 15 21 25 20 18 20 28 31 27 24 23 22 20 20 20 16 15 14 13 13 11 10 9 8 7 6 5 3 3 3 3 2 1 3 4 3
3 2 4 5 2 7 8 8 5 5 6 8 12 26 22 20 20 21 20 26 28 27 26 23 22 20 19 18 18 15 14 13 13 10 8 8 6 5 4 4 3 2 2 3 2 1 4 5 5
3 5 5 6 4 6 7 3 6 5 2 8 12 20 17 19 21 22 28 28 28 28 26 25 22 21 18 18 17 16 15 13 11 10 8 7 5 5 5 3 2 1 1 2 2 3 4 5 6
4 11 9 5 4 1 6 1 2 4 5 8 14 15 16 19 23 21 24 28 29 29 28 25 24 21 19 18 18 17 16 14 13 11 9 7 6 6 5 4 3 2 2 2 4 4 5 7 9
6 9 13 6 2 2 5 1 6 3 8 12 12 13 11 15 22 25 30 29 33 31 29 28 26 24 23 21 19 18 16 15 13 11 9 7 7 7 6 6 5 4 4 5 6 7 9 10 11
4 5 4 5 5 2 4 9 6 6 11 11 9 8 8 8 22 24 29 31 33 31 31 30 29 28 26 24 21 18 17 15 13 10 9 8 7 8 8 8 7 7 7 8 9 11 12 13 14
6 10 7 6 6 3 4 7 6 7 9 10 9 9 9 8 13 25 29 35 34 34 33 33 32 30 28 26 23 20 19 17 15 14 12 11 9 8 9 10 9 9 9 9 9 10 13 15 15
9 8 4 7 5 2 4 7 2 6 9 12 10 8 8 9 17 28 34 34 35 35 35 35 35 33 29 27 26 22 18 19 18 15 15 13 12 11 10 10 10 11 12 12 12 13 13 15 16
5 7 5 4 3 5 8 8 9 5 3 7 9 8 9 13 16 25 34 36 35 36 38 38 38 37 34 30 28 27 25 20 19 17 16 15 14 13 13 13 13 12 13 13 11 12 13 16 12
8 7 6 1 1 3 3 11 4 6 7 9 12 10 11 6 7 15 24 32 36 37 38 39 41 40 38 37 34 31 27 23 22 20 19 17 16 16 16 15 14 14 13 14 13 12 12 13 8
10 11 5 4 4 1 3 7 4 6 4 4 8 7 6 12 11 9 17 22 30 33 36 38 39 40 39 36 33 27 23 21 20 20 19 18 17 16 15 13 12 10 9 11 11 11 10 10 6
17 4 6 5 5 5 4 5 6 7 10 7 9 9 11 11 7 7 16 18 22 26 29 32 35 37 36 36 34 31 24 20 18 20 19 16 15 14 11 10 9 8 7 4 3 3 2 2 4
11 6 6 4 3 3 2 1 7 1 10 10 11 13 12 10 9 10 15 19 16 17 20 23 26 31 33 35 35 33 27 22 15 15 12 13 11 10 9 8 7 6 4 4 2 1 0 2 4
7 4 6 4 2 3 8 7 5 7 8 9 18 11 12 9 8 8 17 16 16 16 16 19 21 24 30 34 36 33 30 24 21 20 16 14 12 10 8 7 7 6 5 3 1 1 1 2 2
9 8 2 1 2 9 0 4 13 5 8 8 10 13 12 9 8 8 10 16 16 16 16 18 21 26 27 32 37 37 29 28 23 23 20 19 16 13 10 7 5 5 4 4 4 4 4 5 5
7 10 5 7 4 2 2 7 6 9 4 8 8 8 8 11 8 9 12 17 15 14 15 16 19 23 27 31 36 36 28 26 24 22 22 19 16 12 10 8 8 9 9 8 7 6 7 6 6
5 7 6 6 2 3 5 7 9 5 9 7 9 6 11 11 11 12 13 17 16 15 15 17 19 22 26 30 32 31 31 27 23 21 21 19 16 14 12 12 12 11 10 8 7 7 7 6 6
9 10 3 2 4 4 4 5 5 5 11 12 9 13 9 6 8 7 11 17 15 15 15 16 18 20 23 28 31 33 32 27 24 23 22 21 19 18 17 14 12 11 10 9 7 7 7 5 7
3 4 2 3 5 6 1 6 9 14 17 14 11 4 6 8 8 8 11 16 15 15 16 18 19 22 25 29 31 32 30 28 28 27 25 24 23 20 17 15 13 11 10 8 6 6 6 7 7
2 6 12 7 9 1 3 7 3 9 9 6 6 8 7 6 7 7 11 16 16 17 18 21 23 25 27 30 32 32 31 31 30 29 27 25 23 20 17 15 13 10 8 6 5 5 5 6 7
Wind_Direction
344 350 3 48 52 63 253 222 150 157 75 333 77 121 136 68 126 194 151 147 154 146 142 136 132 128 116 107 109 107 104 106 104 96 90 90 94 90 87 87 89 83 89 90 90 88 81 81 84
348 358 42 70 85 61 267 267 188 211 146 140 87 73 48 81 89 121 137 153 153 147 148 145 138 132 124 112 115 117 112 108 103 106 94 95 94 94 89 90 91 91 89 92 92 86 81 85 86
359 35 71 89 99 184 207 197 169 134 160 132 91 60 113 113 114 150 156 158 154 149 148 145 143 139 132 118 117 118 113 116 102 111 100 96 95 97 97 97 94 93 93 93 91 86 81 86 89
29 33 34 89 229 246 196 185 177 137 188 51 113 65 38 38 162 170 154 159 156 149 150 148 145 143 134 120 120 124 120 114 110 105 105 97 101 102 97 95 97 96 94 98 97 88 85 86 90
61 57 70 53 265 272 242 180 165 136 104 87 74 165 63 41 158 148 157 161 152 147 150 152 149 146 136 126 125 131 123 123 123 117 112 101 102 109 107 106 100 97 95 94 97 92 86 81 85
47 94 79 221 249 268 123 168 150 96 82 147 88 96 100 144 145 150 158 162 158 152 155 151 148 149 141 130 124 130 129 130 128 127 122 115 104 107 106 104 97 96 98 94 107 105 88 80 78
121 104 181 178 216 121 195 144 157 143 128 193 149 93 51 155 159 153 159 162 158 157 159 156 149 152 144 134 128 127 134 135 134 130 129 119 122 118 104 100 98 103 100 97 101 106 96 79 79
107 101 145 182 181 219 176 139 130 133 124 96 149 164 169 185 165 152 157 159 160 161 164 158 152 152 152 145 138 134 137 136 135 133 134 128 130 124 112 102 97 102 102 101 98 96 93 91 87
98 73 174 182 155 222 170 133 125 84 116 151 154 156 164 161 164 151 155 156 161 165 170 166 164 160 160 159 153 147 142 141 140 136 135 137 131 130 120 104 95 87 98 94 89 87 83 80 84
91 131 204 195 188 190 170 159 159 131 116 38 59 53 137 154 161 152 154 161 170 172 175 174 173 174 169 169 163 158 150 149 146 143 137 135 137 141 141 129 105 83 96 107 116 96 79 55 64
1 201 236 252 224 163 164 148 160 125 207 210 181 151 146 157 167 167 166 172 177 177 178 180 177 179 177 171 170 163 162 158 154 150 147 144 143 136 149 151 136 101 92 62 98 114 20 20 19
349 331 311 308 213 149 172 132 149 172 213 185 169 159 154 166 174 177 176 177 179 183 182 182 182 185 183 181 177 178 175 172 171 167 168 164 156 150 136 144 132 116 102 66 71 16 338 350 354
185 319 326 329 298 117 122 213 180 213 55 124 140 159 164 173 180 183 186 186 182 186 188 186 187 188 190 190 187 189 186 184 183 185 180 182 177 179 177 169 175 151 35 8 5 350 337 339 335
343 325 325 336 317 144 138 116 176 216 124 133 157 174 176 179 182 183 188 190 191 189 193 188 190 192 192 195 196 197 197 193 195 198 196 197 207 210 215 218 228 252 296 311 320 316 322 325 321
10 331 326 278 229 225 131 54 236 152 152 160 182 185 189 191 181 191 194 194 197 195 197 196 195 197 199 199 202 202 200 202 207 209 208 219 227 228 229 236 240 235 265 286 295 304 306 311 310
47 311 288 291 168 204 122 233 236 156 149 182 191 198 201 207 197 194 200 202 203 202 200 203 202 203 206 208 206 208 208 207 206 208 216 227 239 237 248 257 258 259 268 279 290 300 300 301 305
216 213 207 276 210 143 156 244 231 158 167 193 201 205 209 210 218 207 204 209 208 209 207 207 206 207 209 212 212 210 211 213 216 217 225 224 229 242 256 258 263 262 264 268 274 284 293 301 307
178 210 218 195 206 171 185 255 260 194 170 199 208 211 215 213 218 212 211 214 215 215 215 213 211 211 211 213 212 210 215 214 214 216 216 225 234 238 247 256 260 261 265 270 276 283 291 300 313
200 187 210 228 176 151 209 229 237 200 204 218 227 223 221 223 228 219 217 218 219 220 219 218 213 213 211 206 203 206 212 222 220 225 228 226 230 236 246 255 262 266 271 280 281 288 295 303 312
247 203 205 297 36 146 167 244 257 186 220 215 210 218 225 216 217 218 222 225 223 221 220 221 220 216 213 214 213 213 219 224 231 234 235 238 238 241 245 249 257 261 265 272 276 289 293 298 317
236 217 204 182 128 36 119 291 226 231 221 223 232 230 231 215 206 209 204 208 215 215 216 218 219 218 215 213 214 213 216 216 224 228 232 233 235 240 241 252 264 266 264 265 270 280 293 289 310
239 212 168 148 131 211 155 265 255 228 232 207 235 224 230 212 204 197 200 198 198 206 208 214 217 218 217 213 211 205 204 199 222 228 230 234 236 231 233 237 245 252 256 249 251 243 283 266 306
234 164 174 175 167 128 200 180 258 106 241 241 235 230 231 218 201 195 195 200 199 201 199 204 211 216 218 215 213 206 208 211 216 220 209 204 205 212 216 219 222 216 196 182 220 184 290 340 13
163 82 47 57 79 259 210 182 244 196 203 228 233 227 224 203 200 191 197 192 201 211 217 212 209 209 213 215 212 209 208 204 192 189 190 181 177 176 170 167 160 162 169 187 302 309 312 41 59
178 142 207 228 186 231 228 201 239 227 236 228 226 231 215 182 180 181 187 192 196 207 218 223 220 216 208 211 212 212 211 203 191 182 181 165 163 163 164 168 175 170 161 152 132 110 89 72 60
171 187 171 183 209 229 36 232 243 223 258 244 244 242 183 182 185 185 190 197 201 210 218 218 216 217 210 207 209 209 209 192 181 178 177 174 173 166 161 170 164 143 134 124 116 102 81 69 58
186 198 180 97 17 61 208 284 300 262 274 255 244 216 204 187 181 184 185 200 197 201 208 210 206 206 203 201 201 195 187 176 173 176 176 172 165 163 159 151 143 129 123 115 105 91 80 58 49
188 157 141 49 143 246 264 280 234 267 235 240 225 226 205 177 162 159 178 191 194 196 199 198 196 193 188 186 183 175 171 173 175 176 175 168 164 161 154 149 140 131 123 113 100 79 69 48 39
157 171 106 119 157 194 241 259 212 213 219 228 231 197 178 174 170 166 179 191 189 187 191 187 183 176 171 171 167 165 162 163 165 168 167 165 158 155 152 149 140 130 126 116 97 73 51 34 27
327 184 193 200 212 210 170 260 241 239 270 269 219 187 181 172 170 157 173 181 184 183 185 185 178 172 168 165 164 160 159 161 162 162 161 160 158 155 155 148 141 133 126 114 93 67 39 16 8
Height
801 801 799 800 826 836 842 833 822 823 823 821 819 823 830 832 836 849 834 836 840 844 846 850 852 853 853 854 854 855 856 857 858 857 858 857 857 858 858 858 859 860 859 860 860 860 860 859 859
800 800 801 813 839 852 848 829 829 821 822 822 822 827 831 838 833 835 837 839 842 844 846 849 852 853 855 856 856 857 858 858 859 860 860 859 860 860 861 862 862 863 863 863 863 863 862 862 862
800 800 811 829 849 851 846 825 825 821 823 818 826 827 830 836 834 834 836 841 843 845 847 849 851 854 856 858 858 858 859 860 861 862 862 863 863 863 864 865 866 866 866 866 866 866 865 865 865
801 805 818 833 837 828 828 823 822 825 822 819 826 835 830 831 833 834 838 842 845 847 851 853 853 855 857 859 860 860 861 862 863 864 865 865 866 866 867 868 868 869 869 869 869 868 868 868 868
803 815 833 835 833 824 821 819 822 820 821 825 826 837 835 833 833 835 839 843 845 848 852 855 857 857 858 860 861 862 863 864 865 866 868 868 868 868 869 869 870 870 871 872 871 871 871 870 870
815 821 841 842 831 821 818 816 817 820 823 828 832 835 836 836 835 837 842 845 847 849 854 855 857 860 860 861 863 863 864 866 867 868 869 870 870 871 872 872 873 873 873 873 873 873 873 873 873
817 829 836 833 832 824 819 816 820 823 826 827 827 840 839 838 838 837 843 848 849 851 854 857 857 860 863 864 864 865 866 868 869 870 871 872 872 873 873 874 874 875 875 875 875 876 876 875 875
816 825 831 832 836 826 815 815 815 819 824 823 824 839 840 837 839 839 845 848 850 853 856 859 859 860 865 866 867 867 868 869 870 871 872 873 874 875 875 876 876 877 877 877 877 877 877 877 877
811 832 837 827 832 820 814 816 814 817 821 824 824 826 824 833 840 839 845 849 852 854 856 857 859 859 862 865 867 868 870 871 872 873 874 875 876 876 877 878 878 878 879 879 879 879 879 880 879
820 834 825 812 815 814 813 814 817 820 823 826 826 825 827 834 840 839 841 846 850 853 855 857 859 862 861 865 867 869 871 872 874 874 875 876 877 878 878 879 879 880 880 880 880 880 880 880 880
818 827 812 805 806 808 812 816 813 821 827 823 825 827 829 834 839 841 841 843 845 850 855 857 859 861 863 864 868 870 871 872 873 875 876 877 878 878 879 879 880 880 880 881 881 882 882 881 881
827 815 812 806 804 809 813 812 815 814 813 809 815 817 826 831 836 838 840 842 846 850 853 856 859 862 864 865 867 870 871 873 874 875 876 877 878 880 880 880 880 880 881 881 881 882 882 882 881
826 818 811 810 808 807 809 811 812 814 811 811 817 821 825 829 834 837 839 843 845 849 852 854 858 861 864 866 867 869 871 873 874 875 877 878 879 879 880 881 881 881 882 882 882 882 882 882 881
823 824 817 811 810 808 810 812 812 813 814 816 818 821 823 826 830 835 839 841 844 846 851 853 857 860 863 865 866 867 870 872 872 874 876 877 878 879 880 880 881 882 882 882 882 881 881 881 880
830 839 823 816 811 812 810 818 820 812 816 819 821 822 824 826 829 831 834 838 841 843 849 851 854 858 860 862 864 866 868 871 873 875 876 878 879 879 880 880 880 881 882 882 882 881 881 880 879
840 840 845 819 814 814 814 832 813 816 818 821 824 825 825 826 824 828 834 837 840 843 845 849 851 854 858 861 863 866 869 870 872 875 876 877 879 880 881 881 881 881 881 882 882 882 881 880 878
845 843 844 828 818 816 818 825 812 817 819 822 824 825 825 825 826 826 830 833 836 839 842 846 849 851 855 859 862 864 867 869 871 872 874 876 877 879 880 880 882 881 881 880 880 880 880 878 877
834 839 831 829 819 820 822 821 812 817 819 819 824 824 825 823 819 821 825 830 833 836 838 842 846 849 853 857 860 863 866 867 868 871 873 875 876 877 878 878 879 880 880 880 879 878 877 877 877
823 825 824 820 815 819 826 821 816 816 820 823 824 824 823 820 817 819 820 825 829 832 834 837 840 844 849 853 857 860 861 865 866 868 870 871 874 876 876 877 878 878 879 879 879 878 877 876 875
827 822 825 820 818 820 824 822 815 817 817 815 815 819 819 818 817 816 816 819 822 825 828 832 835 839 842 847 851 855 858 862 864 866 868 869 870 872 872 873 873 873 874 876 877 876 875 875 874
825 817 825 818 821 823 823 826 814 810 813 813 814 813 815 813 813 814 813 814 818 820 822 826 830 834 838 841 847 853 856 858 861 863 864 867 868 868 870 871 871 872 871 872 872 873 873 873 872
824 815 820 825 826 836 823 845 821 813 810 812 811 812 809 808 809 808 812 812 814 818 819 823 827 831 835 839 842 847 851 854 857 859 861 863 865 866 867 867 868 869 870 870 871 871 871 871 872
819 814 819 824 827 826 832 840 823 814 813 809 807 804 801 802 804 805 808 810 813 818 818 821 823 827 831 835 839 842 846 850 854 857 859 860 862 864 865 866 867 868 868 869 869 870 870 871 871
815 820 826 834 834 841 825 831 821 815 806 797 789 795 796 797 802 804 807 807 811 815 818 820 822 824 826 831 834 837 841 846 848 853 856 857 860 862 864 866 866 867 868 867 868 868 869 869 868
809 818 841 841 848 828 834 835 796 794 795 793 788 787 789 793 798 802 804 805 807 811 814 816 817 820 821 824 828 832 837 841 845 849 852 855 857 860 861 864 865 864 866 867 867 868 869 868 868
805 805 834 844 853 832 837 826 803 786 786 788 786 785 788 790 793 797 800 802 804 807 810 812 812 815 817 820 823 828 833 836 842 846 850 855 857 859 859 862 865 864 866 867 867 868 869 868 869
805 811 802 831 888 848 826 813 794 783 787 784 785 787 783 785 787 791 797 801 802 805 808 809 809 811 813 816 820 824 830 832 839 844 848 851 855 858 861 863 864 864 866 868 868 868 869 870 869
785 791 808 823 847 846 822 819 801 786 779 776 780 780 779 783 786 790 796 799 801 803 806 807 808 810 812 814 817 821 827 830 836 842 847 850 852 856 858 863 863 864 865 868 869 869 869 870 869
792 795 798 798 819 825 839 808 789 772 766 762 763 774 781 782 786 789 795 800 801 801 804 805 807 808 811 813 817 821 825 829 836 840 846 849 852 855 858 861 862 863 865 867 868 868 870 870 870
782 780 779 793 808 825 822 805 768 772 771 766 769 773 779 783 788 790 796 798 800 800 803 805 806 808 810 812 816 820 824 829 835 841 845 849 852 854 857 858 860 862 864 866 866 867 867 868 866